Regional Weather Roundup
Issued by NWS

Home | Current Version | Previous Version | Graphics & Text | Print | Product List | Glossary On
Versions: 1 2 3 4 5 6 7 8 9 10 11 12 13 14 15 16 17 18 19 20 21 22 23 24 25 26 27 28 29 30 31 32 33 34 35 36 37 38 39 40 41 42 43 44 45 46 47 48 49 50
000
ASUS43 KLSX 032307
RWRMO

WEATHER SUMMARY FOR MISSOURI
NATIONAL WEATHER SERVICE SPRINGFIELD MO
600 PM CDT FRI JUL 03 2015

NOTE: "FAIR" INDICATES FEW OR NO CLOUDS BELOW 12,000 FEET WITH NO
       SIGNIFICANT WEATHER AND/OR OBSTRUCTIONS TO VISIBILITY.
       CURRENT SKY AND/OR WEATHER CONDITIONS ARE NOT AVAILABLE FOR
       CHILLICOTHE AND FARMINGTON.

MOZ001>031-035>038-043-044-053-054-040000-
...NORTHERN AND WESTERN MISSOURI...

CITY           SKY/WX    TMP DP  RH WIND       PRES   REMARKS
KANSAS CTY INT SUNNY     79  56  45 CALM      29.94F
KANSAS C DTWN  SUNNY     80  56  43 NE3       29.93S
LEE`S SUMMIT   SUNNY     78  58  49 NE8       29.94S
ST JOSEPH      MOSUNNY   80  56  43 NE5       29.95S
CHILLICOTHE      N/A     80  60  50 NW3       29.95S
KIRKSVILLE     SUNNY     78  58  49 N5        29.95S

$$
MOZ066>068-077>081-088>096-101>105-040000-
...SOUTHWEST MISSOURI...

CITY           SKY/WX    TMP DP  RH WIND       PRES   REMARKS
SPRINGFIELD    PTSUNNY   78  66  66 NE9       29.90S
JOPLIN         CLOUDY    77  69  76 NE7       29.90F

$$
MOZ032>034-039>042-045>050-055>058-069>072-040000-
...CENTRAL MISSOURI...

CITY           SKY/WX    TMP DP  RH WIND       PRES   REMARKS
COLUMBIA       SUNNY     79  61  53 N7        29.92S
JEFFERSON CITY MOSUNNY   80  59  48 NE8       29.90S
ROLLA          SUNNY     78  61  55 NE9       29.90S
SEDALIA        SUNNY     80  61  52 N6        29.94S
WHITEMAN AFB   SUNNY     79  60  52 NE9       29.92S
WARRENSBURG    SUNNY     77  59  53 N6        29.92S
OSAGE BEACH    SUNNY     79  61  53 N5        29.92R

$$
MOZ051-052-059>065-040000-
...EAST CENTRAL MISSOURI...

CITY           SKY/WX    TMP DP  RH WIND       PRES   REMARKS
ST LOUIS INTL  MOSUNNY   81  66  60 N12       29.88F
SPIRIT OF STL  MOSUNNY   81  66  60 NE6       29.87F
ST CHARLES     SUNNY     80  66  62 N9        29.87F

$$
MOZ072>076-082>087-097>100-106>115-040000-
...SOUTH CENTRAL AND SOUTHEAST MISSOURI...

CITY           SKY/WX    TMP DP  RH WIND       PRES   REMARKS
CAPE GIRARDEAU PTSUNNY   78  69  73 S5        29.85S
FARMINGTON     MOSUNNY   79  64  61 N6        29.92S
POPLAR BLUFF   LGT RAIN  77  73  87 N6        29.85R
WEST PLAINS    LGT RAIN  75  69  81 NE5       29.91F

$$



USA.gov is the U.S. government's official web portal to all federal, state and local government web resources and services.